Time,TemperatureF,DewpointF,PressureIn,WindDirection,WindDirectionDegrees,WindSpeedMPH,WindSpeedGustMPH,Humidity,HourlyPrecipIn,Conditions,Clouds,dailyrainin,SoftwareType,DateUTC
2014-09-22 00:23:00,61.0,52.0,30.03,NNE,17,0.0,-999.0,73,-99.99,,,-99.99,,2014-09-22 05:23:00,
2014-09-22 00:43:00,60.0,52.0,30.03,NNE,17,0.0,-999.0,75,-99.99,,,-99.99,,2014-09-22 05:43:00,
2014-09-22 00:53:00,60.0,52.0,30.03,NNE,17,1.0,-999.0,76,-99.99,,,-99.99,,2014-09-22 05:53:00,
2014-09-22 01:12:00,59.0,52.0,30.03,NNE,24,1.0,-999.0,77,-99.99,,,-99.99,,2014-09-22 06:12:00,
2014-09-22 01:22:00,59.0,52.0,30.03,NE,53,1.0,-999.0,77,-99.99,,,-99.99,,2014-09-22 06:22:00,
2014-09-22 01:52:00,59.0,52.0,30.03,NNE,31,2.0,-999.0,78,-99.99,,,-99.99,,2014-09-22 06:52:00,
2014-09-22 02:12:00,59.0,52.0,30.04,NE,40,2.0,-999.0,78,-99.99,,,-99.99,,2014-09-22 07:12:00,
2014-09-22 02:22:00,58.0,51.0,30.04,NE,37,1.0,-999.0,78,-99.99,,,-99.99,,2014-09-22 07:22:00,
2014-09-22 02:43:00,58.0,52.0,30.04,NE,50,2.0,-999.0,79,-99.99,,,-99.99,,2014-09-22 07:43:00,
2014-09-22 02:52:00,58.0,52.0,30.04,NE,42,2.0,-999.0,79,-99.99,,,-99.99,,2014-09-22 07:52:00,
2014-09-22 03:22:00,57.0,51.0,30.04,NE,42,1.0,-999.0,81,-99.99,,,-99.99,,2014-09-22 08:22:00,
2014-09-22 03:42:00,57.0,51.0,30.04,NE,44,0.0,-999.0,81,-99.99,,,-99.99,,2014-09-22 08:42:00,
2014-09-22 03:52:00,56.0,51.0,30.04,NE,45,0.0,-999.0,82,-99.99,,,-99.99,,2014-09-22 08:52:00,
2014-09-22 04:12:00,56.0,51.0,30.04,NE,53,1.0,-999.0,83,-99.99,,,-99.99,,2014-09-22 09:12:00,
2014-09-22 04:22:00,56.0,51.0,30.05,ENE,60,2.0,-999.0,83,-99.99,,,-99.99,,2014-09-22 09:22:00,
2014-09-22 04:44:00,56.0,51.0,30.06,ENE,57,1.0,-999.0,84,-99.99,,,-99.99,,2014-09-22 09:44:00,
2014-09-22 04:54:00,55.0,50.0,30.06,NE,54,1.0,-999.0,84,-99.99,,,-99.99,,2014-09-22 09:54:00,
2014-09-22 05:13:00,55.0,51.0,30.06,NE,55,0.0,-999.0,85,-99.99,,,-99.99,,2014-09-22 10:13:00,
2014-09-22 05:23:00,55.0,51.0,30.06,NE,55,1.0,-999.0,85,-99.99,,,-99.99,,2014-09-22 10:23:00,
2014-09-22 05:53:00,55.0,51.0,30.06,ENE,61,1.0,-999.0,86,-99.99,,,-99.99,,2014-09-22 10:53:00,
2014-09-22 06:23:00,54.0,50.0,30.08,ENE,61,1.0,-999.0,86,-99.99,,,-99.99,,2014-09-22 11:23:00,
2014-09-22 06:42:00,54.0,50.0,30.08,ENE,61,0.0,-999.0,86,-99.99,,,-99.99,,2014-09-22 11:42:00,
2014-09-22 06:52:00,54.0,50.0,30.09,ENE,59,0.0,-999.0,87,-99.99,,,-99.99,,2014-09-22 11:52:00,
2014-09-22 07:23:00,53.0,49.0,30.09,ENE,59,0.0,-999.0,87,-99.99,,,-99.99,,2014-09-22 12:23:00,
2014-09-22 07:42:00,53.0,50.0,30.10,ENE,60,0.0,-999.0,88,-99.99,,,-99.99,,2014-09-22 12:42:00,
2014-09-22 07:52:00,53.0,50.0,30.10,ENE,60,0.0,-999.0,89,-99.99,,,-99.99,,2014-09-22 12:52:00,
2014-09-22 08:22:00,55.0,52.0,30.11,ENE,69,2.0,-999.0,88,-99.99,,,-99.99,,2014-09-22 13:22:00,
2014-09-22 08:42:00,55.0,51.0,30.11,ENE,57,2.0,-999.0,86,-99.99,,,-99.99,,2014-09-22 13:42:00,
2014-09-22 08:52:00,57.0,52.0,30.12,East,82,3.0,-999.0,84,-99.99,,,-99.99,,2014-09-22 13:52:00,
2014-09-22 09:22:00,60.0,53.0,30.13,East,94,3.0,-999.0,79,-99.99,,,-99.99,,2014-09-22 14:22:00,
2014-09-22 09:43:00,61.0,54.0,30.13,East,88,4.0,-999.0,78,-99.99,,,-99.99,,2014-09-22 14:43:00,
2014-09-22 09:52:00,62.0,55.0,30.14,ESE,106,3.0,-999.0,77,-99.99,,,-99.99,,2014-09-22 14:52:00,
2014-09-22 10:22:00,64.0,55.0,30.14,East,88,5.0,-999.0,72,-99.99,,,-99.99,,2014-09-22 15:22:00,
2014-09-22 10:44:00,65.0,56.0,30.14,East,81,4.0,-999.0,72,-99.99,,,-99.99,,2014-09-22 15:44:00,
2014-09-22 10:54:00,66.0,55.0,30.14,ENE,69,5.0,-999.0,67,-99.99,,,-99.99,,2014-09-22 15:54:00,
2014-09-22 11:24:00,66.0,55.0,30.14,NE,54,3.0,-999.0,67,-99.99,,,-99.99,,2014-09-22 16:24:00,
2014-09-22 11:53:00,68.0,55.0,30.13,ENE,65,5.0,-999.0,63,-99.99,,,-99.99,,2014-09-22 16:53:00,
2014-09-22 12:20:00,68.0,-99.9,30.13,East,90,5.0,-999.0,63,-99.99,,,-99.99,,2014-09-22 17:20:00,
2014-09-22 12:43:00,69.0,55.0,30.12,ENE,76,5.0,-999.0,61,-99.99,,,-99.99,,2014-09-22 17:43:00,
2014-09-22 12:53:00,70.0,54.0,30.12,ENE,77,4.0,-999.0,56,-99.99,,,-99.99,,2014-09-22 17:53:00,
2014-09-22 13:12:00,70.0,55.0,30.12,East,91,4.0,-999.0,60,-99.99,,,-99.99,,2014-09-22 18:12:00,
2014-09-22 13:22:00,70.0,56.0,30.11,NE,54,2.0,-999.0,61,-99.99,,,-99.99,,2014-09-22 18:22:00,
2014-09-22 13:42:00,71.0,54.0,30.12,ENE,59,3.0,-999.0,56,-99.99,,,-99.99,,2014-09-22 18:42:00,
2014-09-22 13:52:00,72.0,55.0,30.11,East,85,4.0,-999.0,56,-99.99,,,-99.99,,2014-09-22 18:52:00,